Location: Ahausen
(50.4985°N, 8.2722°E)
Time: 11:09:28
(UTC+00:00)

NOSS 2-2 (C) - Pass Details

Date: 18 September 2020
Orbit: 468 x 1740 km, 63.3° (Epoch: 19 October)

Event Time Altitude Azimuth Distance (km) Brightness Sun altitude
Rises 20:05:39 0° 243° (WSW) 2,504 7.0 -23.6°
Reaches altitude 10° 20:07:44 10° 250° (WSW) 1,656 6.2 -23.8°
Maximum altitude 20:11:09 43° 324° (NW) 746 4.4 -24.3°
Drops below altitude 10° 20:15:12 10° 37° (NE) 1,957 6.1 -24.8°
Enters shadow 20:15:46 - 39° (NE) 2,185 6.3 -24.9°
